map of BKI home
BKI - Airport
Location
City:  Kota-Kinabalu, Sabah, Malaysia
Name:Kota-Kinabalu International Airport
ICAO:WBKK
IATA:BKI

Details
Type:Airport (Aerodrome, Airfield)
Use:Public/Civil, International (customs port of entry)
Latitude:556'14"N (5.937208)
Longitude:11603'04"E (116.051181)
Datum:WGS 1984
Elevation:10 ft (3 m)
Variation:0.36W (WMM2015 magnetic declination)
-0.08 annual change
Runways:1
Longest:9800 × 150 ft (2987 × 45.5 m), paved

Time
Time Zone:UTC+8
Local Time:

Weather
METAR:WBKK 291700Z 10002KT 9000 -RA FEW014 SCT040 BKN260 27/25 Q1011 NOSIG
TAF:WBKK 291700Z 2918/3018 11006KT 9999 FEW014
TEMPO 2918/2920 5000 -TSRA FEW013 FEW016CB SCT030
BECMG 3000/3002 25006KT

Related Locations
Nearby:
Farthest:SDKH: 12384 mi / 19930 km
Canutama [Aeropuerto Canutama], AM, BR

Find:

   beyond  
but within

Other Information
Maps:
NOTAMs:
Links:
Sources:

  
flag of Malaysia
flag of Sabah
  

Sectional Chart

Flight Planning
at skyvector.com

Satellite Image

Google Maps Satellite view

 

Copyright © 2004-2017 Karl L. Swartz. All rights reserved.
The Great Circle Mapper name and logo are trademarks of the Great Circle Mapper.
All other trademarks mentioned herein belong to their respective owners.
Please see credits for attibutions and further copyright information.

  Follow gcmap on Facebook Follow gcmap on Twitter Follow gcmap on Google+ GCmap on LinkedIn

hCard Microformat

Geo Microformat